Location: Asheville, NC
(35.6000°N, 82.5500°W)
Time: 18:48:04
(UTC-05:00)

Vanguard 2 Rocket - Pass Details

Date: 12 February 2018
Orbit: 555 x 3327 km, 32.9° (Epoch: 17 February)

Event Time Altitude Azimuth Distance (km) Brightness Sun altitude
Rises 21:55:02 0° 189° (S) 5,149 - -46.0°
Reaches altitude 10° 21:59:16 10° 174° (S) 4,599 - -46.8°
Maximum altitude 22:08:41 22° 130° (SE) 4,501 - -48.6°
Drops below altitude 10° 22:20:46 10° 89° (E) 6,096 - -50.9°
Sets 22:27:36 0° 77° (ENE) 7,293 - -52.1°
